Location: *
(45.9500°N, 9.0833°E)
Time: 07:08:51
(UTC+00:00)

Tiros 1 - All Passes

Search period start: 15 June 2021 00:00
Search period end: 25 June 2021 00:00
Orbit: 630 x 664 km, 48.4° (Epoch: 14 June)

Date Brightness Start Highest point End Pass type
(mag) Time Alt. Az. Time Alt. Az. Time Alt. Az.
15 Jun - 10:47:58 10° SSW 10:52:05 31° SE 10:56:13 10° E daylight
15 Jun - 12:29:16 10° WSW 12:33:58 89° N 12:38:44 10° ENE daylight
15 Jun - 14:11:42 10° W 14:16:24 64° N 14:21:09 10° E daylight
15 Jun - 15:54:01 10° WNW 15:58:47 79° SSW 16:03:34 10° ESE daylight
15 Jun - 17:36:41 10° W 17:40:33 25° SW 17:44:25 10° SSE daylight
16 Jun - 09:33:48 10° SSE 09:36:21 15° SE 09:38:56 10° E daylight
16 Jun - 11:13:15 10° SW 11:17:49 56° SSE 11:22:26 10° ENE daylight
16 Jun - 12:55:20 10° W 13:00:01 69° N 13:04:46 10° ENE daylight
16 Jun - 14:37:46 10° WNW 14:42:31 73° NNE 14:47:17 10° E daylight
16 Jun - 16:20:04 10° WNW 16:24:39 48° SSW 16:29:15 10° SE daylight
16 Jun - 18:04:12 10° WSW 18:06:01 12° SW 18:07:51 10° SSW daylight
17 Jun - 09:57:52 10° SSW 10:01:53 29° SE 10:05:55 10° E daylight
17 Jun - 11:39:02 10° WSW 11:43:43 88° SSE 11:48:28 10° ENE daylight
17 Jun - 13:21:27 10° W 13:26:08 64° N 13:30:52 10° E daylight
17 Jun - 15:03:47 10° WNW 15:08:32 82° SSW 15:13:19 10° ESE daylight
17 Jun - 16:46:22 10° W 16:50:20 26° SW 16:54:19 10° SSE daylight
18 Jun - 08:43:56 10° SSE 08:46:11 13° SE 08:48:26 10° ESE daylight
18 Jun - 10:23:04 10° SW 10:27:35 53° SSE 10:32:10 10° ENE daylight
18 Jun - 12:05:05 10° W 12:09:45 70° N 12:14:30 10° ENE daylight
18 Jun - 13:47:32 10° WNW 13:52:15 72° N 13:57:01 10° E daylight
18 Jun - 15:29:49 10° WNW 15:34:25 51° SSW 15:39:02 10° SE daylight
18 Jun - 17:13:38 10° WSW 17:15:50 13° SW 17:18:03 10° SSW daylight
19 Jun - 09:07:47 10° SSW 09:11:40 27° SE 09:15:36 10° E daylight
19 Jun - 10:48:48 10° WSW 10:53:28 85° SSE 10:58:12 10° ENE daylight
19 Jun - 12:31:12 10° W 12:35:52 64° N 12:40:35 10° E daylight
19 Jun - 14:13:32 10° WNW 14:18:17 86° SSW 14:23:04 10° ESE daylight
19 Jun - 15:56:04 10° W 16:00:07 28° SW 16:04:11 10° SSE daylight
20 Jun - 07:54:09 10° SSE 07:56:00 12° SE 07:57:51 10° ESE daylight
20 Jun - 09:32:53 10° SW 09:37:22 50° SSE 09:41:54 10° ENE daylight
20 Jun - 11:14:50 10° W 11:19:30 72° N 11:24:13 10° ENE daylight
20 Jun - 12:57:17 10° WNW 13:01:59 70° N 13:06:44 10° E daylight
20 Jun - 14:39:33 10° WNW 14:44:11 54° SSW 14:48:49 10° SE daylight
20 Jun - 16:23:08 10° WSW 16:25:38 14° SW 16:28:10 10° SSW daylight
21 Jun - 08:17:42 10° SSW 08:21:28 25° SE 08:25:17 10° E daylight
21 Jun - 09:58:35 10° WSW 10:03:14 81° SSE 10:07:56 10° ENE daylight
21 Jun - 11:40:57 10° W 11:45:36 64° N 11:50:19 10° E daylight
21 Jun - 13:23:18 10° WNW 13:28:02 89° S 13:32:47 10° ESE daylight
21 Jun - 15:05:47 10° W 15:09:54 30° SW 15:14:03 10° SSE daylight
22 Jun - 07:04:31 10° SSE 07:05:49 11° SE 07:07:08 10° ESE daylight
22 Jun - 08:42:43 10° SW 08:47:08 46° SSE 08:51:37 10° ENE daylight
22 Jun - 10:24:35 10° W 10:29:15 74° NNW 10:33:57 10° ENE daylight
22 Jun - 12:07:02 10° WNW 12:11:43 69° N 12:16:27 10° E daylight
22 Jun - 13:49:19 10° WNW 13:53:56 57° SSW 13:58:36 10° SE daylight
22 Jun - 15:32:41 10° W 15:35:27 15° SW 15:38:13 10° S daylight
23 Jun - 07:27:37 10° SSW 07:31:17 23° SE 07:34:57 10° E daylight
23 Jun - 09:08:21 10° WSW 09:13:00 78° SSE 09:17:40 10° ENE daylight
23 Jun - 10:50:43 10° W 10:55:21 64° N 11:00:02 10° E daylight
23 Jun - 12:33:04 10° WNW 12:37:46 88° NNE 12:42:32 10° ESE daylight
23 Jun - 14:15:30 10° W 14:19:41 32° SW 14:23:54 10° SSE daylight
24 Jun - 07:52:33 10° SW 07:56:55 43° SSE 08:01:21 10° ENE daylight
24 Jun - 09:34:21 10° W 09:39:00 76° NNW 09:43:41 10° ENE daylight
24 Jun - 11:16:48 10° WNW 11:21:28 67° N 11:26:10 10° E daylight
24 Jun - 12:59:04 10° WNW 13:03:42 61° SSW 13:08:22 10° SE daylight
24 Jun - 14:42:17 10° W 14:45:15 17° SW 14:48:14 10° S daylight
